Back to catalog

COSMOS 1285 DEB

AliveHEO
NORAD 26680·DEBRIS·🇷🇺 Russia

Launched Aug 4, 1981 from Plesetsk Cosmodrome

Loading…

Next Passes (next 24 hours)

TLE

FreshSource: Space-Track

Epoch: Sep 14, 2026, 13:35 UTC

1 26680U 81071L   26257.56612141 -.00000801  00000-0  12311-2 0  9997
2 26680  62.7570 352.6802 7434890  46.2070 354.8460  1.98413970209778

Track COSMOS 1285 DEB in real time with AllMySat

Download on the App Store